| time (UTC) | temp C | wind direction | speed KPH | gust KPH | rain 1hr cm | rain 24hr cm | rain mn cm | humidity % | barometer mb |
| 20260506115139 | 16 | 1.6 | 3.2 | 0.00 | 0.00 | 2.31 | 99 | 1014.9 | |
| 20260506114634 | 16 | 3.2 | 8.0 | 0.00 | 0.00 | 2.31 | 99 | 1014.9 | |
| 20260506114136 | 16 | 3.2 | 11.3 | 0.00 | 0.00 | 2.31 | 99 | 1014.9 | |
| 20260506113621 | 17 | 1.6 | 4.8 | 0.00 | 0.00 | 2.31 | 99 | 1015.0 | |
| 20260506113115 | 17 | 3.2 | 8.0 | 0.00 | 0.00 | 2.31 | 99 | 1015.0 | |
| 20260506112609 | 18 | 1.6 | 6.4 | 0.00 | 0.00 | 2.31 | 99 | 1015.0 | |
| 20260506112104 | 20 | 3.2 | 8.0 | 0.00 | 0.00 | 2.31 | 99 | 1014.9 | |
| 20260506111558 | 21 | 1.6 | 6.4 | 0.00 | 0.00 | 2.31 | 99 | 1014.9 | |
| 20260506111100 | 22 | 3.2 | 11.3 | 0.00 | 0.00 | 2.31 | 99 | 1014.9 | |
| 20260506110545 | 21 | 3.2 | 8.0 | 0.00 | 0.00 | 2.31 | 99 | 1014.9 | |
| 20260506110040 | 20 | 1.6 | 4.8 | 0.00 | 0.00 | 2.31 | 99 | 1014.8 | |
| 20260506105533 | 19 | 1.6 | 4.8 | 0.05 | 0.00 | 2.31 | 99 | 1014.8 | |
| 20260506105027 | 18 | 1.6 | 3.2 | 0.05 | 0.00 | 2.31 | 99 | 1014.8 | |
| 20260506104521 | 18 | 1.6 | 6.4 | 0.05 | 0.00 | 2.31 | 99 | 1014.8 | |
| 20260506104023 | 16 | 1.6 | 3.2 | 0.05 | 0.00 | 2.31 | 99 | 1014.8 | |
| 20260506103509 | 15 | 0.0 | 1.6 | 0.05 | 0.00 | 2.31 | 99 | 1014.8 | |
| 20260506103003 | 15 | 1.6 | 3.2 | 0.05 | 0.00 | 2.31 | 99 | 1014.8 | |
| 20260506102457 | 15 | 1.6 | 6.4 | 0.05 | 0.00 | 2.31 | 99 | 1014.9 | |
| 20260506101951 | 14 | 1.6 | 3.2 | 0.05 | 0.00 | 2.31 | 99 | 1014.9 | |
| 20260506101445 | 13 | 0.0 | 1.6 | 0.05 | 0.00 | 2.31 | 99 | 1014.9 | |
| 20260506100948 | 12 | 0.0 | 1.6 | 0.05 | 0.00 | 2.31 | 99 | 1014.9 | |
| 20260506100433 | 13 | 3.2 | 8.0 | 0.05 | 0.00 | 2.31 | 99 | 1014.9 | |
| 20260506095927 | 12 | 3.2 | 9.7 | 0.00 | 0.00 | 2.26 | 99 | 1014.9 | |
| 20260506095420 | 12 | 3.2 | 9.7 | 0.46 | 0.00 | 2.21 | 99 | 1014.8 | |
| 20260506094914 | 12 | 3.2 | 8.0 | 0.46 | 0.00 | 2.21 | 99 | 1014.8 | |
| 20260506094409 | 12 | 1.6 | 6.4 | 0.46 | 0.00 | 2.21 | 99 | 1014.6 | |
| 20260506093357 | 12 | 1.6 | 3.2 | 0.41 | 0.00 | 2.13 | 99 | 1014.5 | |
| 20260506092851 | 12 | 1.6 | 6.4 | 0.33 | 0.00 | 2.08 | 99 | 1014.4 | |
| 20260506092345 | 12 | 3.2 | 8.0 | 0.28 | 0.00 | 2.03 | 99 | 1014.5 | |
| 20260506091839 | 12 | 1.6 | 6.4 | 0.15 | 0.00 | 1.91 | 99 | 1014.3 | |
| 20260506091333 | 12 | 1.6 | 6.4 | 0.00 | 0.00 | 1.73 | 99 | 1014.3 | |
| 20260506090835 | 12 | 1.6 | 6.4 | 0.00 | 0.00 | 1.73 | 99 | 1014.3 | |
| 20260506090320 | 12 | 1.6 | 6.4 | 0.00 | 0.00 | 1.73 | 99 | 1014.3 | |
| 20260506085813 | 12 | 1.6 | 6.4 | 0.33 | 0.00 | 1.73 | 99 | 1014.2 | |
| 20260506085307 | 12 | 1.6 | 4.8 | 0.28 | 0.00 | 1.68 | 99 | 1014.2 | |
| 20260506084802 | 12 | 1.6 | 4.8 | 0.28 | 0.00 | 1.68 | 99 | 1014.2 | |
| 20260506084256 | 12 | 1.6 | 4.8 | 0.28 | 0.00 | 1.68 | 99 | 1014.2 | |
| 20260506083758 | 12 | 1.6 | 6.4 | 0.23 | 0.00 | 1.63 | 99 | 1014.1 | |
| 20260506083243 | 13 | 3.2 | 11.3 | 0.15 | 0.00 | 1.55 | 99 | 1014.0 | |
| 20260506082737 | 13 | 1.6 | 3.2 | 0.05 | 0.00 | 1.45 | 99 | 1014.0 | |
| 20260506082232 | 13 | 1.6 | 4.8 | 0.00 | 0.00 | 1.37 | 99 | 1014.0 | |
| 20260506081726 | 13 | 1.6 | 4.8 | 0.00 | 0.00 | 1.37 | 99 | 1014.1 | |
| 20260506081220 | 13 | 1.6 | 3.2 | 0.00 | 0.00 | 1.37 | 99 | 1014.1 | |
| 20260506080723 | 12 | 1.6 | 3.2 | 0.00 | 0.00 | 1.37 | 99 | 1014.1 | |
| 20260506080208 | 12 | 1.6 | 3.2 | 0.00 | 0.00 | 1.37 | 99 | 1014.1 | |
| 20260506073130 | 16 | 0.0 | 1.6 | 0.00 | 0.00 | 1.09 | 99 | 1013.6 | |
| 20260506072624 | 15 | 1.6 | 6.4 | 0.00 | 0.00 | 1.09 | 99 | 1013.7 | |
| 20260506072118 | 15 | 1.6 | 3.2 | 0.00 | 0.00 | 1.09 | 99 | 1013.7 | |
| 20260506071612 | 14 | 1.6 | 4.8 | 0.00 | 0.00 | 1.09 | 99 | 1013.7 | |
| 20260506071106 | 14 | 0.0 | 1.6 | 0.00 | 0.00 | 1.09 | 99 | 1013.7 | |
| 20260506070608 | 12 | 0.0 | 0.0 | 0.00 | 0.00 | 1.09 | 99 | 1013.7 | |
| 20260506062511 | 12 | 0.0 | 0.0 | 0.00 | 0.00 | 1.09 | 99 | 1013.5 | |
| 20260506062005 | 13 | 0.0 | 0.0 | 0.00 | 0.00 | 1.09 | 99 | 1013.4 | |
| 20260506061459 | 12 | 0.0 | 1.6 | 0.00 | 0.00 | 1.09 | 99 | 1013.5 | |
| 20260506060953 | 11 | 0.0 | 1.6 | 0.00 | 0.00 | 1.09 | 99 | 1013.4 | |
| 20260506060455 | 11 | 0.0 | 0.0 | 0.00 | 0.00 | 1.09 | 99 | 1013.5 | |
| 20260506051346 | 10 | 0.0 | 0.0 | 0.00 | 0.00 | 1.09 | 99 | 1013.2 | |
| 20260506050840 | 10 | 0.0 | 0.0 | 0.00 | 0.00 | 1.09 | 99 | 1013.1 | |
| 20260506050343 | 10 | 0.0 | 0.0 | 0.00 | 0.00 | 1.09 | 99 | 1013.1 | |
| 20260506044815 | 10 | 0.0 | 0.0 | 0.05 | 0.00 | 1.09 | 99 | 1013.0 | |
| 20260506044309 | 10 | 0.0 | 0.0 | 0.05 | 0.00 | 1.09 | 99 | 1013.1 | |
| 20260506043803 | 10 | 0.0 | 0.0 | 0.00 | 0.00 | 1.04 | 99 | 1013.1 | |
| 20260506043305 | 10 | 0.0 | 0.0 | 0.00 | 0.00 | 1.04 | 99 | 1013.2 | |
| 20260506042750 | 10 | 0.0 | 0.0 | 0.00 | 0.00 | 1.04 | 99 | 1013.2 | |
| 20260506042245 | 10 | 0.0 | 0.0 | 0.00 | 0.00 | 1.04 | 99 | 1013.3 | |
| 20260506041739 | 10 | 0.0 | 0.0 | 0.00 | 0.00 | 1.04 | 99 | 1013.3 | |
| 20260506041233 | 10 | 0.0 | 0.0 | 0.00 | 0.00 | 1.04 | 99 | 1013.3 | |
| 20260506040727 | 10 | 0.0 | 0.0 | 0.00 | 0.00 | 1.04 | 99 | 1013.3 | |
| 20260506040229 | 10 | 0.0 | 0.0 | 0.00 | 0.00 | 1.04 | 99 | 1013.3 | |
| 20260506035713 | 10 | 0.0 | 0.0 | 0.00 | 0.00 | 1.04 | 99 | 1013.4 | |
| 20260506035207 | 10 | 0.0 | 0.0 | 0.00 | 0.00 | 1.04 | 99 | 1013.5 | |
| 20260506034701 | 10 | 0.0 | 0.0 | 0.00 | 0.00 | 1.04 | 99 | 1013.4 | |
| 20260506034155 | 10 | 0.0 | 0.0 | 0.00 | 0.00 | 1.04 | 99 | 1013.4 | |
| 20260506033649 | 10 | 0.0 | 0.0 | 0.00 | 0.00 | 1.04 | 99 | 1013.4 | |
| 20260506033152 | 10 | 0.0 | 0.0 | 0.00 | 0.00 | 1.04 | 99 | 1013.5 | |
| 20260506032636 | 10 | 0.0 | 0.0 | 0.00 | 0.00 | 1.04 | 99 | 1013.6 | |
| 20260506032131 | 10 | 0.0 | 0.0 | 0.00 | 0.00 | 1.04 | 99 | 1013.5 | |
| 20260506031625 | 10 | 0.0 | 0.0 | 0.00 | 0.00 | 1.04 | 99 | 1013.5 | |
| 20260506031119 | 10 | 0.0 | 1.6 | 0.00 | 0.00 | 1.04 | 99 | 1013.6 | |
| 20260506030613 | 10 | 0.0 | 0.0 | 0.00 | 0.00 | 1.04 | 99 | 1013.5 | |
| 20260506030116 | 10 | 0.0 | 1.6 | 0.00 | 0.00 | 1.04 | 99 | 1013.6 | |
| 20260506025601 | 10 | 1.6 | 3.2 | 0.28 | 0.00 | 1.04 | 99 | 1013.6 | |
| 20260506025055 | 10 | 1.6 | 4.8 | 0.28 | 0.00 | 1.04 | 99 | 1013.7 | |
| 20260506024549 | 10 | 0.0 | 0.0 | 0.28 | 0.00 | 1.04 | 99 | 1013.6 | |
| 20260506024043 | 10 | 1.6 | 4.8 | 0.28 | 0.00 | 1.04 | 99 | 1013.7 | |
| 20260506023537 | 10 | 0.0 | 1.6 | 0.28 | 0.00 | 1.04 | 99 | 1013.7 | |
| 20260506023039 | 10 | 0.0 | 0.0 | 0.28 | 0.00 | 1.04 | 99 | 1013.8 | |
| 20260506022524 | 10 | 0.0 | 0.0 | 0.23 | 0.00 | 0.97 | 99 | 1013.8 | |
| 20260506022018 | 10 | 1.6 | 6.4 | 0.10 | 0.00 | 0.86 | 99 | 1013.7 | |
| 20260506021514 | 10 | 1.6 | 3.2 | 0.10 | 0.00 | 0.86 | 99 | 1013.8 | |
| 20260506021006 | 10 | 1.6 | 3.2 | 0.05 | 0.00 | 0.81 | 99 | 1013.9 | |
| 20260506020500 | 10 | 1.6 | 3.2 | 0.00 | 0.00 | 0.74 | 99 | 1013.9 | |
| 20260506020002 | 10 | 0.0 | 1.6 | 0.00 | 0.00 | 0.74 | 99 | 1013.9 | |
| 20260506015447 | 10 | 1.6 | 4.8 | 0.74 | 0.00 | 0.74 | 99 | 1013.9 | |
| 20260506014941 | 10 | 1.6 | 3.2 | 0.74 | 0.00 | 0.74 | 99 | 1013.8 | |
| 20260506014435 | 10 | 1.6 | 4.8 | 0.64 | 0.00 | 0.64 | 99 | 1014.0 | |
| 20260506013929 | 10 | 3.2 | 9.7 | 0.41 | 0.00 | 0.41 | 99 | 1013.8 | |
| 20260506013423 | 10 | 1.6 | 4.8 | 0.00 | 0.00 | 0.00 | 99 | 1014.0 | |
| 20260506012925 | 10 | 1.6 | 4.8 | 0.00 | 0.00 | 0.00 | 99 | 1013.9 | |
| 20260506012410 | 10 | 0.0 | 0.0 | 0.00 | 0.00 | 0.00 | 99 | 1014.0 | |
| 20260506011904 | 10 | 0.0 | 0.0 | 0.00 | 0.00 | 0.00 | 99 | 1013.9 | |
| 20260506011358 | 10 | 0.0 | 1.6 | 0.00 | 0.00 | 0.00 | 99 | 1014.0 | |
| 20260506010852 | 10 | 0.0 | 1.6 | 0.00 | 0.00 | 0.00 | 99 | 1014.1 | |
| 20260506010347 | 10 | 0.0 | 1.6 | 0.00 | 0.00 | 0.00 | 99 | 1014.2 | |
| 20260506005851 | 10 | 1.6 | 3.2 | 0.00 | 0.00 | 0.00 | 99 | 1014.2 | |
| 20260506005336 | 10 | 1.6 | 3.2 | 0.00 | 0.00 | 0.00 | 99 | 1014.2 | |
| 20260506004830 | 10 | 1.6 | 3.2 | 0.00 | 0.00 | 0.00 | 99 | 1014.4 | |
| 20260506004324 | 10 | 1.6 | 4.8 | 0.00 | 0.00 | 0.00 | 99 | 1014.3 | |
| 20260506003817 | 10 | 1.6 | 3.2 | 0.00 | 0.00 | 0.00 | 99 | 1014.5 | |
| 20260506003311 | 10 | 0.0 | 1.6 | 0.00 | 0.00 | 0.00 | 99 | 1014.5 | |
| 20260506002814 | 10 | 0.0 | 0.0 | 0.00 | 0.00 | 0.00 | 99 | 1014.4 | |
| 20260506002259 | 10 | 0.0 | 0.0 | 0.00 | 0.00 | 0.00 | 99 | 1014.5 | |
| 20260506001753 | 10 | 0.0 | 1.6 | 0.00 | 0.00 | 0.00 | 99 | 1014.5 | |
| 20260506001247 | 10 | 1.6 | 3.2 | 0.00 | 0.00 | 0.00 | 99 | 1014.4 | |
| 20260506000741 | 10 | 0.0 | 1.6 | 0.00 | 0.00 | 0.00 | 99 | 1014.5 | |
| 20260506000235 | 10 | 0.0 | 1.6 | 0.00 | 0.00 | 0.00 | 99 | 1014.5 | |
| 20260505235739 | 10 | 0.0 | 0.0 | 0.00 | 0.00 | 2.54 | 99 | 1014.5 | |
| 20260505235224 | 10 | 0.0 | 0.0 | 0.00 | 0.00 | 2.54 | 99 | 1014.6 | |
| 20260505234718 | 10 | 0.0 | 0.0 | 0.00 | 0.00 | 2.54 | 99 | 1014.7 | |
| 20260505234212 | 10 | 0.0 | 0.0 | 0.00 | 0.00 | 2.54 | 99 | 1014.8 | |
| 20260505233706 | 10 | 0.0 | 0.0 | 0.00 | 0.00 | 2.54 | 99 | 1014.9 | |
| 20260505233200 | 10 | 0.0 | 0.0 | 0.00 | 0.00 | 2.54 | 99 | 1014.9 | |
| 20260505232703 | 11 | 0.0 | 0.0 | 0.00 | 0.00 | 2.54 | 99 | 1014.8 | |
| 20260505232148 | 11 | 0.0 | 1.6 | 0.00 | 0.00 | 2.54 | 99 | 1014.8 | |
| 20260505231642 | 11 | 0.0 | 0.0 | 0.00 | 0.00 | 2.54 | 99 | 1014.9 | |
| 20260505231136 | 11 | 0.0 | 0.0 | 0.00 | 0.00 | 2.54 | 99 | 1015.0 | |
| 20260505230630 | 11 | 0.0 | 0.0 | 0.00 | 0.00 | 2.54 | 99 | 1014.9 | |
| 20260505230124 | 11 | 0.0 | 1.6 | 0.00 | 0.00 | 2.54 | 99 | 1014.9 | |
| 20260505225628 | 11 | 0.0 | 0.0 | 0.15 | 0.00 | 2.54 | 99 | 1014.9 | |
| 20260505225113 | 11 | 0.0 | 0.0 | 0.15 | 0.00 | 2.54 | 99 | 1014.9 | |
| 20260505224607 | 11 | 0.0 | 1.6 | 0.15 | 0.00 | 2.54 | 99 | 1014.9 | |
| 20260505224101 | 11 | 0.0 | 1.6 | 0.15 | 0.00 | 2.54 | 99 | 1014.8 | |
| 20260505223555 | 11 | 1.6 | 3.2 | 0.15 | 0.00 | 2.54 | 99 | 1014.8 | |
| 20260505223049 | 11 | 0.0 | 1.6 | 0.15 | 0.00 | 2.54 | 99 | 1014.8 | |
| 20260505222551 | 11 | 0.0 | 0.0 | 0.15 | 0.00 | 2.54 | 99 | 1014.8 | |
| 20260505222036 | 11 | 0.0 | 0.0 | 0.15 | 0.00 | 2.54 | 99 | 1014.8 | |
| 20260505221531 | 11 | 0.0 | 0.0 | 0.10 | 0.00 | 2.49 | 99 | 1014.9 | |
| 20260505221025 | 11 | 0.0 | 0.0 | 0.10 | 0.00 | 2.49 | 99 | 1014.9 | |
| 20260505220519 | 11 | 0.0 | 0.0 | 0.10 | 0.00 | 2.49 | 99 | 1014.9 | |
| 20260505220013 | 11 | 0.0 | 0.0 | 0.00 | 0.00 | 2.36 | 99 | 1015.0 | |
| 20260505215517 | 11 | 0.0 | 0.0 | 0.28 | 0.00 | 2.36 | 99 | 1015.0 | |
| 20260505215002 | 11 | 0.0 | 0.0 | 0.28 | 0.00 | 2.36 | 99 | 1015.0 | |
| 20260505214456 | 11 | 0.0 | 0.0 | 0.28 | 0.00 | 2.36 | 99 | 1015.1 | |
| 20260505213950 | 11 | 0.0 | 0.0 | 0.28 | 0.00 | 2.36 | 99 | 1015.0 | |
| 20260505213445 | 11 | 0.0 | 0.0 | 0.28 | 0.00 | 2.36 | 99 | 1015.1 | |
| 20260505212939 | 11 | 0.0 | 0.0 | 0.28 | 0.00 | 2.36 | 99 | 1015.2 | |
| 20260505212441 | 11 | 0.0 | 0.0 | 0.28 | 0.00 | 2.36 | 99 | 1015.2 | |
| 20260505211926 | 11 | 0.0 | 0.0 | 0.28 | 0.00 | 2.36 | 99 | 1015.2 | |
| 20260505211421 | 11 | 0.0 | 0.0 | 0.28 | 0.00 | 2.36 | 99 | 1015.1 | |
| 20260505210915 | 11 | 0.0 | 1.6 | 0.15 | 0.00 | 2.26 | 99 | 1015.3 | |
| 20260505210409 | 11 | 0.0 | 0.0 | 0.00 | 0.00 | 2.08 | 99 | 1015.2 | |
| 20260505205904 | 11 | 0.0 | 0.0 | 0.00 | 0.00 | 2.08 | 99 | 1015.3 | |
| 20260505205408 | 12 | 0.0 | 0.0 | 0.23 | 0.00 | 2.08 | 99 | 1015.2 | |
| 20260505204853 | 12 | 0.0 | 0.0 | 0.23 | 0.00 | 2.08 | 99 | 1015.2 | |
| 20260505204347 | 12 | 0.0 | 0.0 | 0.23 | 0.00 | 2.08 | 99 | 1015.3 | |
| 20260505203841 | 12 | 0.0 | 0.0 | 0.23 | 0.00 | 2.08 | 99 | 1015.3 | |
| 20260505203335 | 12 | 0.0 | 0.0 | 0.23 | 0.00 | 2.08 | 99 | 1015.2 | |
| 20260505202829 | 12 | 0.0 | 0.0 | 0.23 | 0.00 | 2.08 | 99 | 1015.1 | |
| 20260505202332 | 12 | 0.0 | 0.0 | 0.23 | 0.00 | 2.08 | 99 | 1015.1 | |
| 20260505201817 | 12 | 0.0 | 1.6 | 0.23 | 0.00 | 2.08 | 99 | 1015.0 | |
| 20260505201311 | 12 | 1.6 | 3.2 | 0.15 | 0.00 | 2.03 | 99 | 1015.0 | |
| 20260505200805 | 12 | 0.0 | 1.6 | 0.00 | 0.00 | 1.85 | 99 | 1015.1 | |
| 20260505200259 | 12 | 0.0 | 1.6 | 0.00 | 0.00 | 1.85 | 99 | 1015.0 | |
| 20260505195752 | 12 | 0.0 | 1.6 | 0.00 | 0.00 | 1.85 | 99 | 1014.9 | |
| 20260505195254 | 12 | 0.0 | 0.0 | 0.00 | 0.00 | 1.85 | 99 | 1014.9 | |
| 20260505194739 | 12 | 0.0 | 0.0 | 0.00 | 0.00 | 1.85 | 99 | 1014.8 | |
| 20260505194233 | 12 | 0.0 | 0.0 | 0.00 | 0.00 | 1.85 | 99 | 1014.7 | |
| 20260505193728 | 12 | 0.0 | 0.0 | 0.00 | 0.00 | 1.85 | 99 | 1014.7 | |
| 20260505193220 | 12 | 0.0 | 0.0 | 0.00 | 0.00 | 1.85 | 99 | 1014.6 | |
| 20260505192714 | 12 | 0.0 | 0.0 | 0.00 | 0.00 | 1.85 | 99 | 1014.6 | |
| 20260505192217 | 12 | 0.0 | 1.6 | 0.00 | 0.00 | 1.85 | 99 | 1014.6 | |
| 20260505191702 | 12 | 0.0 | 1.6 | 0.00 | 0.00 | 1.85 | 99 | 1014.5 | |
| 20260505191156 | 13 | 0.0 | 1.6 | 0.00 | 0.00 | 1.85 | 99 | 1014.4 | |
| 20260505190650 | 13 | 1.6 | 4.8 | 0.00 | 0.00 | 1.85 | 99 | 1014.4 | |
| 20260505190144 | 13 | 0.0 | 1.6 | 0.00 | 0.00 | 1.85 | 99 | 1014.4 | |
| 20260505185638 | 13 | 3.2 | 8.0 | 0.00 | 0.00 | 1.85 | 99 | 1014.4 | |
| 20260505185140 | 13 | 3.2 | 8.0 | 0.00 | 0.00 | 1.85 | 99 | 1014.4 | |
| 20260505184625 | 14 | 0.0 | 1.6 | 0.00 | 0.00 | 1.85 | 99 | 1014.4 | |
| 20260505184119 | 14 | 1.6 | 3.2 | 0.00 | 0.00 | 1.85 | 99 | 1014.4 | |
| 20260505183613 | 14 | 1.6 | 4.8 | 0.00 | 0.00 | 1.85 | 99 | 1014.4 | |
| 20260505183107 | 14 | 0.0 | 1.6 | 0.00 | 0.00 | 1.85 | 99 | 1014.4 | |
| 20260505182103 | 14 | 1.6 | 3.2 | 0.00 | 0.00 | 1.85 | 99 | 1014.4 | |
| 20260505181548 | 14 | 1.6 | 3.2 | 0.00 | 0.00 | 1.85 | 99 | 1014.3 | |
| 20260505181042 | 13 | 1.6 | 3.2 | 0.00 | 0.00 | 1.85 | 99 | 1014.3 | |
| 20260505180536 | 13 | 1.6 | 3.2 | 0.00 | 0.00 | 1.85 | 99 | 1014.3 | |
| 20260505180030 | 13 | 0.0 | 1.6 | 0.00 | 0.00 | 1.85 | 99 | 1014.3 | |
| 20260505175524 | 13 | 1.6 | 3.2 | 0.00 | 0.00 | 1.85 | 99 | 1014.3 | |
| 20260505175026 | 13 | 1.6 | 4.8 | 0.00 | 0.00 | 1.85 | 99 | 1014.3 | |
| 20260505174510 | 13 | 0.0 | 1.6 | 0.00 | 0.00 | 1.85 | 99 | 1014.4 | |
| 20260505174006 | 14 | 0.0 | 1.6 | 0.00 | 0.00 | 1.85 | 99 | 1014.4 | |
| 20260505173458 | 14 | 1.6 | 3.2 | 0.00 | 0.00 | 1.85 | 99 | 1014.3 | |
| 20260505172952 | 14 | 0.0 | 1.6 | 0.00 | 0.00 | 1.85 | 99 | 1014.3 | |
| 20260505172446 | 14 | 1.6 | 3.2 | 0.00 | 0.00 | 1.85 | 99 | 1014.4 | |
| 20260505171948 | 14 | 1.6 | 4.8 | 0.00 | 0.00 | 1.85 | 99 | 1014.4 | |
| 20260505171433 | 14 | 1.6 | 3.2 | 0.00 | 0.00 | 1.85 | 99 | 1014.4 | |
| 20260505170928 | 14 | 1.6 | 3.2 | 0.00 | 0.00 | 1.85 | 99 | 1014.4 | |
| 20260505170422 | 15 | 3.2 | 8.0 | 0.00 | 0.00 | 1.85 | 99 | 1014.3 | |
| 20260505165916 | 15 | 1.6 | 3.2 | 0.00 | 0.00 | 1.85 | 99 | 1014.4 | |
| 20260505165409 | 15 | 1.6 | 4.8 | 0.00 | 0.00 | 1.85 | 99 | 1014.4 | |
| 20260505164911 | 15 | 1.6 | 6.4 | 0.00 | 0.00 | 1.85 | 99 | 1014.4 | |
| 20260505164356 | 15 | 1.6 | 4.8 | 0.00 | 0.00 | 1.85 | 99 | 1014.5 | |
| 20260505163850 | 15 | 1.6 | 6.4 | 0.00 | 0.00 | 1.85 | 99 | 1014.5 | |
| 20260505163344 | 15 | 1.6 | 6.4 | 0.00 | 0.00 | 1.85 | 99 | 1014.5 | |
| 20260505162838 | 15 | 1.6 | 6.4 | 0.00 | 0.00 | 1.85 | 99 | 1014.6 | |
| 20260505162332 | 15 | 3.2 | 8.0 | 0.00 | 0.00 | 1.85 | 99 | 1014.7 | |
| 20260505161835 | 15 | 1.6 | 4.8 | 0.00 | 0.00 | 1.85 | 99 | 1014.7 | |
| 20260505161320 | 16 | 3.2 | 9.7 | 0.00 | 0.00 | 1.85 | 99 | 1014.7 | |
| 20260505160814 | 16 | 1.6 | 6.4 | 0.00 | 0.00 | 1.85 | 99 | 1014.7 | |
| 20260505160308 | 15 | 1.6 | 6.4 | 0.00 | 0.00 | 1.85 | 99 | 1014.7 | |
| 20260505153230 | 17 | 1.6 | 6.4 | 0.00 | 0.00 | 1.85 | 99 | 1014.5 | |
| 20260505152724 | 17 | 3.2 | 9.7 | 0.00 | 0.00 | 1.85 | 99 | 1014.6 | |
| 20260505152218 | 17 | 3.2 | 8.0 | 0.00 | 0.00 | 1.85 | 99 | 1014.6 | |
| 20260505151720 | 18 | 3.2 | 9.7 | 0.00 | 0.00 | 1.85 | 99 | 1014.6 | |
| 20260505151205 | 18 | 3.2 | 8.0 | 0.00 | 0.00 | 1.85 | 99 | 1014.6 | |
| 20260505150659 | 18 | 3.2 | 8.0 | 0.00 | 0.00 | 1.85 | 99 | 1014.7 | |
| 20260505150153 | 18 | 3.2 | 8.0 | 0.00 | 0.00 | 1.85 | 99 | 1014.7 | |
| 20260505140544 | 19 | 1.6 | 4.8 | 0.00 | 0.00 | 1.85 | 99 | 1014.6 | |
| 20260505124912 | 17 | 1.6 | 4.8 | 0.00 | 0.00 | 1.85 | 99 | 1015.1 | |
| 20260505124414 | 19 | 1.6 | 6.4 | 0.00 | 0.00 | 1.85 | 99 | 1015.1 | |
| 20260505123859 | 18 | 1.6 | 4.8 | 0.00 | 0.00 | 1.85 | 99 | 1015.1 | |
| 20260505123353 | 19 | 1.6 | 4.8 | 0.00 | 0.00 | 1.85 | 99 | 1015.1 | |
| 20260505122847 | 19 | 1.6 | 6.4 | 0.00 | 0.00 | 1.85 | 99 | 1015.1 | |
| 20260505122342 | 17 | 1.6 | 3.2 | 0.00 | 0.00 | 1.85 | 99 | 1015.1 | |
| 20260505121836 | 17 | 1.6 | 4.8 | 0.00 | 0.00 | 1.85 | 99 | 1015.2 | |
| 20260505121338 | 15 | 0.0 | 0.0 | 0.00 | 0.00 | 1.85 | 99 | 1015.2 | |
| 20260505120824 | 15 | 0.0 | 0.0 | 0.00 | 0.00 | 1.85 | 99 | 1015.2 | |
| 20260505120318 | 14 | 0.0 | 0.0 | 0.00 | 0.00 | 1.85 | 99 | 1015.2 |